{"data":{"norad_id":67712,"intl_designator":"2026-025V","name":"STARLINK-36705","alt_names":[],"object_type":"PAYLOAD","status":"ACTIVE","operator":null,"country":"US","launch_date":"2026-02-07","launch_site_code":"AFWTR","launch_vehicle":null,"mission":null,"orbit_class":"UNKNOWN","rcs_meters":null,"size_class":null,"mass_kg":null,"dimensions":null,"purposes":["comms"],"wikipedia_slug":null,"has_3d_model":false,"image_url":null,"decayed_at":null,"tle_current":{"epoch":"2026-05-25T01:27:38.359296Z","epoch_age_seconds":69543,"freshness":"FRESH","line1":"1 67712U 26025V   26145.06086064  .00021751  00000+0  67387-3 0  9995","line2":"2 67712  97.2860 256.6310 0000334  53.9122 306.2151 15.33456910 17713","mean_motion":15.3345691,"eccentricity":3.34e-5,"inclination_deg":97.286,"raan_deg":256.631,"arg_perigee_deg":53.9122,"mean_anomaly_deg":306.2151,"bstar":0.00067387,"rev_number":1771,"period_min":93.905475309378,"perigee_km":465.2791611926,"apogee_km":465.73631666116,"semimajor_km":6843.6447389269,"source":"CELESTRAK","updated_at":"2026-05-25T13:38:21.683420Z"}}}